Weather in Khama

Syria     35°07′57″N   36°45′34″E
temp.,
°C
wind,
m/s
gust,
m/s
humid.,
%
clouds,
%
prec.,
mm/h
press.,
hPa
HPBL,
m
9 may, sun
sun900:00+21w11435 0.0 101211
03:00+20ssw114257 0.0 101011
06:00+20s2234100 0.0 101012
09:00+27wsw2322100 0.3 1010299
12:00+34w711121 0.1 10082062
15:00+34wsw1014110 0.1 10071935
18:00+31wsw711140 0.0 10071235
21:00+23wsw33260 0.0 100830
10 may, mon
mon1000:00+21ssw11320 0.0 100911
03:00+19ene711350 0.0 1010285
06:00+16ne47270 0.0 1012185
09:00+21ne45160 0.0 1013743
12:00+26ne22150 0.0 10111223
15:00+29n23150 0.0 10091654
18:00+29nnw33190 0.0 10071429
21:00+21w22430 0.0 100921
11 may, tue
tue1100:00+19wnw22510 0.0 100914
03:00+17wnw11510 0.0 100911
06:00+16w11490 0.0 101011
09:00+22nnw01300 0.0 1010492
12:00+28wnw12210 0.0 10091473
15:00+31nw35140 0.0 10072446
18:00+30wnw54170 0.0 10061325
21:00+22w22320 0.0 100820
12 may, wed
wed1200:00+19sw22340 0.0 101014
03:00+18w11340 0.0 100911
06:00+17w11340 0.0 101011
09:00+24w11215 0.0 1010382
12:00+29nw11161 0.0 10101371
15:00+32wnw23115 0.0 10082224
18:00+29wnw66200 0.0 1008494
21:00+22wnw22340 0.0 101028
13 may, thu
thu1300:00+20sw22350 0.0 101014
03:00+18wsw11350 0.0 101011
06:00+18sw11350 0.0 101111
09:00+24wsw11200 0.0 1011392
12:00+30wnw22140 0.0 10101224
15:00+34nw33110 0.0 10092168
18:00+30wnw67230 0.0 1009532
21:00+22wnw23430 0.0 101151